DELTA 1 DEB, 7036

Orbit data source: Space-Track

DELTA 1 DEB, 7036 is space debris in SSO originally from a launch on Tue, 06 Nov 1973 UTC launched from the Air Force Western Test Range (AFWTR). Debris objects in space refer to the collection of defunct objects orbiting the Earth. Examples of debris include non-operational satellites, rocket bodies, and fragments generated from explosions, collisions, or faulty payload assembly.

Loading next visibility...
Identifier
7036, 1973-086AC
Orbit
SSO
Country
Flag of USUS
Related business
Manufacturer
Unknown
Mission
Spacecraft
Bus & Motor
Unknown
Mass
Unknown
Launch date (UTC)
1973-11-06 (52 years ago)
Launch vehicle
Unknown
Launch site
Air Force Western Test Range (AFWTR)
Object type
Payload
Rocket body
Debris
Shape & HBR
Unknown
Radar Cross Section
Medium (>0.1 m² and <1 m²)

Expand to show TLE details & history
Last TLE update: 16 hours ago

TLE from 16 hours ago
0 DELTA 1 DEB
1 07036U 73086AC  25260.91672329  .00000581  00000-0  38172-2 0  9991
2 07036 101.5678 235.6806 0053367  18.6245  38.4528 12.55253463362979
Epoch: 2025-09-17T22:00Z
TLE epoch observation values (Epoch: 2025-09-17T22:00:04.892Z)
Latitude
55.77341°
Longitude
-108.84701°
Altitude
1,419.078 km
Speed
7.171 km/s
True Right ascension
14h 33m 02s
True Declination
55° 37' 37"
Sunlit
Object was in daylight at epoch
Visualization orbit readout
Latitude
Unknown
Longitude
Unknown
Altitude
Unknown
Speed
Unknown
Apparent Right ascension
Unknown
Apparent Declination
Unknown
Sunlit
N/A
Visualization observer readout
Local Sidereal Time
06:30:42
Azimuth
Unknown
Elevation
Unknown
Doppler factor
Unknown
Orbital elements
Apogee altitude
1,481.851 km
Perigee altitude
1,398.403 km
Semi-major axis
7,818.264 km
Eccentricity
0.00534
Inclination
101.5678°
RAAN
235.6806°
Arg. of periapsis
18.6245°
True anomaly
38.83509°
Mean anomaly
38.4528°
Eccentric anomaly
38.64375°
Mean motion
3.13962 °/min
Orbital period
114.66 mins
BSTAR
0.0038172
Loading maneuver chart data...
Computing Atmospheric mass density...
Loading historical data...
Loading historical data...
Loading historical data...
Loading historical data...
Loading historical data...
Loading historical data...
Loading historical data...

Documentation

Showing up to 5 results
|